When you browse on this site, cookies collect data to enhance your experience and personalize the content and advertising you see.
Visit our Privacy Policy to learn more. By continuing to use the site, you agree to this use of cookies and data.
  • In Deutschland
  • Länderverzeichnis
  • Für 7 Tage
  • Wassertemperatur
  • Satellitenkarten
  • Wetterkarte
  • Widgets
  • user-avatar
    Anmelden

    Stündliche Wetter Bruchsal

    Heute, 10 Dezember, Montag

    Zeit Temperatur Niederschläge Wind Luftdruck Luftfeuchtigkeit
    00:00 +6°C° 0.2 mm 5 m/S 751 mmHg 82%
    01:00 +5°C° 0 mm 5 m/S 752 mmHg 81%
    02:00 +5°C° 0.1 mm 5 m/S 752 mmHg 82%
    03:00 +5°C° 0.1 mm 5 m/S 753 mmHg 82%
    04:00 +3°C° 0.1 mm 6 m/S 753 mmHg 82%
    05:00 +3°C° 0.2 mm 5 m/S 754 mmHg 82%
    06:00 +3°C° 0.2 mm 5 m/S 754 mmHg 83%
    07:00 +4°C° 0 mm 4 m/S 755 mmHg 83%
    08:00 +4°C° 0 mm 4 m/S 755 mmHg 83%
    09:00 +3°C° 0 mm 5 m/S 755 mmHg 82%
    10:00 +3°C° 0 mm 5 m/S 756 mmHg 82%
    11:00 +5°C° 0.1 mm 5 m/S 756 mmHg 80%
    12:00 +5°C° 0.1 mm 5 m/S 756 mmHg 77%
    13:00 +5°C° 0.1 mm 5 m/S 756 mmHg 75%
    14:00 +5°C° 0.2 mm 5 m/S 755 mmHg 75%
    15:00 +5°C° 0.2 mm 5 m/S 755 mmHg 75%
    16:00 +5°C° 0.2 mm 5 m/S 755 mmHg 75%
    17:00 +5°C° 0.4 mm 5 m/S 755 mmHg 77%
    18:00 +5°C° 0.4 mm 5 m/S 755 mmHg 78%
    19:00 +3°C° 0.4 mm 5 m/S 755 mmHg 79%
    20:00 +3°C° 0.4 mm 5 m/S 756 mmHg 80%
    21:00 +3°C° 0.4 mm 4 m/S 756 mmHg 81%
    22:00 +3°C° 0.4 mm 3 m/S 756 mmHg 81%
    23:00 +3°C° 0 mm 3 m/S 756 mmHg 83%

    Morgen, 11 Dezember, Dienstag

    Zeit Temperatur Niederschläge Wind Luftdruck Luftfeuchtigkeit
    00:00 +2°C° 0 mm 3 m/S 756 mmHg 84%
    01:00 +2°C° 0 mm 3 m/S 757 mmHg 85%
    02:00 +2°C° 0 mm 3 m/S 757 mmHg 86%
    03:00 +2°C° 0 mm 3 m/S 757 mmHg 86%
    04:00 +1°C° 0 mm 3 m/S 757 mmHg 87%
    05:00 +1°C° 0 mm 3 m/S 757 mmHg 87%
    06:00 +1°C° 0 mm 3 m/S 757 mmHg 88%
    07:00 +1°C° 0 mm 3 m/S 757 mmHg 88%
    08:00 +2°C° 0.1 mm 3 m/S 757 mmHg 87%
    09:00 +2°C° 0.1 mm 3 m/S 757 mmHg 85%
    10:00 +1°C° 0.1 mm 4 m/S 757 mmHg 84%
    11:00 +3°C° 0.1 mm 4 m/S 757 mmHg 82%
    12:00 +4°C° 0.1 mm 4 m/S 757 mmHg 79%
    13:00 +4°C° 0.1 mm 4 m/S 756 mmHg 76%
    14:00 +4°C° 0.1 mm 3 m/S 756 mmHg 78%
    15:00 +4°C° 0.1 mm 3 m/S 756 mmHg 79%
    16:00 +3°C° 0.1 mm 3 m/S 756 mmHg 80%
    17:00 +4°C° 0 mm 2 m/S 756 mmHg 83%
    18:00 +3°C° 0 mm 2 m/S 756 mmHg 85%
    19:00 +3°C° 0 mm 2 m/S 756 mmHg 88%
    20:00 +2°C° 0 mm 2 m/S 756 mmHg 88%
    21:00 +2°C° 0 mm 2 m/S 756 mmHg 89%
    22:00 +3°C° 0 mm 1 m/S 756 mmHg 90%
    23:00 +2°C° 0 mm 1 m/S 756 mmHg 90%

    übermorgen, 12 Dezember, Mittwoch

    Zeit Temperatur Niederschläge Wind Luftdruck Luftfeuchtigkeit
    00:00 +2°C° 0 mm 1 m/S 756 mmHg 91%
    01:00 +2°C° 0 mm 1 m/S 756 mmHg 91%
    02:00 +2°C° 0 mm 1 m/S 756 mmHg 91%
    03:00 +2°C° 0 mm 1 m/S 755 mmHg 91%
    04:00 +2°C° 0 mm 1 m/S 755 mmHg 91%
    05:00 +1°C° 0 mm 0 m/S 755 mmHg 91%
    06:00 +1°C° 0 mm 0 m/S 755 mmHg 91%
    07:00 +1°C° 0 mm 0 m/S 755 mmHg 91%
    08:00 +1°C° 0 mm 0 m/S 755 mmHg 89%
    09:00 +2°C° 0 mm 0 m/S 755 mmHg 87%
    10:00 +2°C° 0 mm 0 m/S 755 mmHg 85%
    11:00 +4°C° 0 mm 1 m/S 755 mmHg 83%
    12:00 +4°C° 0 mm 1 m/S 754 mmHg 81%
    13:00 +5°C° 0 mm 1 m/S 754 mmHg 78%
    14:00 +4°C° 0 mm 2 m/S 754 mmHg 80%
    15:00 +3°C° 0 mm 2 m/S 754 mmHg 82%
    16:00 +3°C° 0 mm 2 m/S 753 mmHg 83%
    17:00 +2°C° 0 mm 2 m/S 753 mmHg 85%
    18:00 +2°C° 0 mm 2 m/S 754 mmHg 86%
    19:00 +1°C° 0 mm 2 m/S 754 mmHg 87%
    20:00 +1°C° 0 mm 2 m/S 754 mmHg 88%
    21:00 +1°C° 0 mm 2 m/S 754 mmHg 88%
    22:00 +1°C° 0 mm 1 m/S 753 mmHg 88%
    23:00 +1°C° 0 mm 1 m/S 753 mmHg 88%

    13 Dezember, Donnerstag

    Zeit Temperatur Niederschläge Wind Luftdruck Luftfeuchtigkeit
    00:00 +1°C° 0 mm 1 m/S 753 mmHg 88%
    01:00 +1°C° 0 mm 1 m/S 753 mmHg 88%
    02:00 +1°C° 0 mm 1 m/S 752 mmHg 89%
    03:00 +1°C° 0 mm 1 m/S 752 mmHg 90%
    04:00 0°C° 0 mm 1 m/S 752 mmHg 90%
    05:00 -2°C° 0 mm 2 m/S 751 mmHg 90%
    06:00 -2°C° 0 mm 2 m/S 751 mmHg 90%
    07:00 -2°C° 0 mm 2 m/S 750 mmHg 90%
    08:00 -1°C° 0 mm 2 m/S 750 mmHg 87%
    09:00 -1°C° 0 mm 3 m/S 750 mmHg 84%
    10:00 0°C° 0 mm 3 m/S 750 mmHg 81%
    11:00 0°C° 0 mm 3 m/S 749 mmHg 77%
    12:00 0°C° 0 mm 4 m/S 749 mmHg 73%
    13:00 +1°C° 0 mm 4 m/S 748 mmHg 69%
    14:00 0°C° 0 mm 4 m/S 748 mmHg 71%
    15:00 +1°C° 0 mm 3 m/S 748 mmHg 72%
    16:00 +1°C° 0 mm 3 m/S 748 mmHg 74%
    17:00 0°C° 0 mm 3 m/S 748 mmHg 76%
    18:00 -1°C° 0 mm 3 m/S 748 mmHg 78%
    19:00 -1°C° 0 mm 3 m/S 748 mmHg 81%
    20:00 -1°C° 0 mm 3 m/S 748 mmHg 81%
    21:00 -1°C° 0 mm 3 m/S 749 mmHg 81%
    22:00 -1°C° 0 mm 3 m/S 749 mmHg 81%
    23:00 -2°C° 0 mm 3 m/S 749 mmHg 81%

    14 Dezember, Freitag

    Zeit Temperatur Niederschläge Wind Luftdruck Luftfeuchtigkeit
    00:00 -2°C° 0 mm 3 m/S 749 mmHg 81%
    01:00 -2°C° 0 mm 2 m/S 749 mmHg 81%
    02:00 -2°C° 0 mm 2 m/S 749 mmHg 80%
    03:00 -2°C° 0 mm 2 m/S 750 mmHg 80%
    04:00 -2°C° 0 mm 2 m/S 750 mmHg 80%
    05:00 -1°C° 0 mm 2 m/S 750 mmHg 79%
    06:00 -1°C° 0 mm 2 m/S 751 mmHg 79%
    07:00 +1°C° 0 mm 1 m/S 751 mmHg 79%
    08:00 +1°C° 0 mm 1 m/S 752 mmHg 78%
    09:00 +1°C° 0 mm 1 m/S 752 mmHg 77%
    10:00 +2°C° 0 mm 1 m/S 753 mmHg 76%
    11:00 +2°C° 0 mm 1 m/S 753 mmHg 73%
    12:00 +2°C° 0 mm 0 m/S 754 mmHg 70%
    13:00 +3°C° 0 mm 0 m/S 754 mmHg 67%
    14:00 +2°C° 0 mm 0 m/S 755 mmHg 70%
    15:00 +2°C° 0 mm 0 m/S 755 mmHg 73%
    16:00 +1°C° 0 mm 0 m/S 756 mmHg 77%
    17:00 +1°C° 0 mm 0 m/S 756 mmHg 79%
    18:00 +2°C° 0 mm 1 m/S 757 mmHg 81%
    19:00 +1°C° 0 mm 1 m/S 757 mmHg 83%
    20:00 +1°C° 0 mm 1 m/S 758 mmHg 84%
    21:00 +1°C° 0 mm 1 m/S 758 mmHg 85%
    22:00 +1°C° 0 mm 1 m/S 758 mmHg 86%
    23:00 +1°C° 0 mm 1 m/S 759 mmHg 87%

    15 Dezember, Samstag

    Zeit Temperatur Niederschläge Wind Luftdruck Luftfeuchtigkeit
    00:00 +1°C° 0 mm 1 m/S 759 mmHg 88%
    01:00 +2°C° 0 mm 1 m/S 759 mmHg 88%
    02:00 +2°C° 0 mm 1 m/S 759 mmHg 88%
    03:00 +2°C° 0 mm 1 m/S 760 mmHg 88%
    04:00 +1°C° 0 mm 2 m/S 760 mmHg 88%
    05:00 +2°C° 0 mm 2 m/S 760 mmHg 88%
    06:00 +2°C° 0 mm 2 m/S 760 mmHg 88%
    07:00 +2°C° 0 mm 2 m/S 760 mmHg 88%
    08:00 +2°C° 0 mm 2 m/S 760 mmHg 86%
    09:00 +4°C° 0 mm 1 m/S 760 mmHg 85%
    10:00 +4°C° 0 mm 1 m/S 760 mmHg 84%
    11:00 +5°C° 0 mm 1 m/S 760 mmHg 81%
    12:00 +6°C° 0 mm 1 m/S 759 mmHg 79%
    13:00 +7°C° 0 mm 1 m/S 759 mmHg 77%
    14:00 +6°C° 0 mm 1 m/S 759 mmHg 80%
    15:00 +6°C° 0 mm 1 m/S 759 mmHg 83%
    16:00 +5°C° 0 mm 1 m/S 759 mmHg 86%
    17:00 +5°C° 0 mm 1 m/S 759 mmHg 86%
    18:00 +5°C° 0 mm 1 m/S 759 mmHg 86%
    19:00 +4°C° 0 mm 1 m/S 759 mmHg 87%
    20:00 +5°C° 0.1 mm 1 m/S 759 mmHg 87%
    21:00 +5°C° 0.1 mm 1 m/S 759 mmHg 86%
    22:00 +4°C° 0.1 mm 2 m/S 759 mmHg 86%
    23:00 +4°C° 0.2 mm 2 m/S 758 mmHg 86%
    Mehr zeigen